This is the latest recevied weather packets stored in our database for station/object K5KVN. If no packets are shown the sender has not sent any weather packets the latest 10 day(s).
| Time | Temp. | Humidity | Pressure | Rain* | Wind** | Luminosity | Snow |
|---|---|---|---|---|---|---|---|
| 1787837920 | 21.11° C | 97% | 1019.2 hPa | 0 mm | - | - | - |
| 1787837318 | 20.56° C | 97% | 1019.3 hPa | 0 mm | - | - | - |
| 1787836659 | 20.56° C | 97% | 1019.3 hPa | 0 mm | - | - | - |
| 1787836119 | 20° C | 97% | 1019.2 hPa | 0 mm | - | - | - |
| 1787835458 | 19.44° C | 97% | 1019.1 hPa | 0 mm | - | - | - |
| 1787834860 | 19.44° C | 97% | 1019.1 hPa | 0 mm | - | - | - |
| 1787834259 | 18.89° C | 96% | 1019.1 hPa | 0 mm | - | - | - |
| 1787833719 | 18.89° C | 97% | 1018.9 hPa | 0 mm | - | - | - |
| 1787833118 | 18.89° C | 97% | 1018.8 hPa | 0 mm | - | - | - |
| 1787832459 | 18.33° C | 96% | 1018.7 hPa | 0 mm | - | - | - |
| 1787831918 | 18.89° C | 96% | 1018.5 hPa | 0 mm | - | - | - |
| 1787831259 | 18.89° C | 96% | 1018.6 hPa | 0 mm | - | - | - |
| 1787830660 | 18.89° C | 96% | 1018.3 hPa | 0 mm | - | - | - |
| 1787830059 | 18.89° C | 96% | 1018.3 hPa | 0 mm | - | - | - |
| 1787829514 | 18.89° C | 96% | 1018.3 hPa | 0 mm | - | - | - |
| 1787828851 | 19.44° C | 96% | 1018 hPa | 0 mm | - | - | - |
| 1787828252 | 19.44° C | 96% | 1017.9 hPa | 0 mm | - | - | - |
| 1787827652 | 18.89° C | 96% | 1018 hPa | 0 mm | - | - | - |
| 1787827051 | 19.44° C | 96% | 1018.2 hPa | 0 mm | - | - | - |
| 1787826450 | 19.44° C | 96% | 1018.1 hPa | 0 mm | - | - | - |
| 1787825851 | 19.44° C | 96% | 1017.9 hPa | 0 mm | - | - | - |
| 1787825249 | 19.44° C | 96% | 1017.9 hPa | 0 mm | - | - | - |
| 1787824651 | 19.44° C | 96% | 1017.8 hPa | 0 mm | - | - | - |
| 1787824051 | 19.44° C | 96% | 1017.8 hPa | 0 mm | - | - | - |
| 1787823449 | 19.44° C | 96% | 1017.8 hPa | 0 mm | - | - | - |
* Rain latest hour (hover to see other rain measurements)
** Current wind speed in m/s (hover to see current wind gust speed)